Augusta, Maine, United States (04330)
Lat: 44.31N, Lon: 69.78W
Wx Zone: MEZ021
Local Info
Past Weather Observations for Thursday, September 18, 2014

NOTE: This archive is for the closest National Weather Service station to Augusta. Information may differ from the station used for current weather conditions.

Click here for Long-term Archive

Time Weather Temperature Dewpoint Humidity Pressure Winds Precip Visibility
23:53
Clear
41°F / 5°C 32°F / 0°C 70% 30.18 in
(1022 mb)
NNW 10.4 mph
(NNW 17 kph)
- 10SM
22:53
Clear
45°F / 7°C 32°F / 0°C 61% 30.18 in
(1022 mb)
N 16.1 mph
(N 26 kph)
- 10SM
21:53
Clear
45°F / 7°C 34°F / 1°C 66% 30.15 in
(1021 mb)
N 9.2 mph
(N 15 kph)
- 10SM
20:53
Clear
46°F / 8°C 34°F / 1°C 62% 30.15 in
(1021 mb)
N 6.9 mph
(N 11 kph)
- 10SM
19:53
Clear
48°F / 9°C 34°F / 1°C 58% 30.12 in
(1020 mb)
NNW 11.5 mph
(NNW 19 kph)
- 10SM
18:53
Clear
48°F / 9°C 37°F / 3°C 66% 30.09 in
(1019 mb)
NNW 9.2 mph
(NNW 15 kph)
- 10SM
17:53
Clear
54°F / 12°C 37°F / 3°C 54% 30.06 in
(1018 mb)
NW 10.4 mph
(NW 17 kph)
- 10SM
16:53
Partly Cloudy
57°F / 14°C 37°F / 3°C 48% 30.04 in
(1017 mb)
NW 8.1 mph
(NW 13 kph)
- 10SM
15:53
Clear
59°F / 15°C 39°F / 4°C 48% 30.01 in
(1016 mb)
NW 12.7 mph
(NW 20 kph)
- 10SM
14:53
Partly Cloudy
64°F / 18°C 41°F / 5°C 43% 29.98 in
(1015 mb)
NW 10.4 mph
(NW 17 kph)
- 10SM
13:53
Clear
66°F / 19°C 43°F / 6°C 43% 29.98 in
(1015 mb)
NW 9.2 mph
(NW 15 kph)
- 10SM
12:53
Mostly Cloudy
64°F / 18°C 43°F / 6°C 46% 29.98 in
(1015 mb)
NW 15 mph
(NW 24 kph)
- 10SM
11:53
Partly Cloudy
66°F / 19°C 46°F / 8°C 49% 29.95 in
(1014 mb)
NW 10.4 mph
(NW 17 kph)
- 10SM
10:53
Partly Cloudy
64°F / 18°C 46°F / 8°C 52% 29.95 in
(1014 mb)
NW 16.1 mph
(NW 26 kph)
- 10SM
09:53
Clear
64°F / 18°C 48°F / 9°C 56% 29.98 in
(1015 mb)
NW 9.2 mph
(NW 15 kph)
- 10SM
08:53
Clear
63°F / 17°C 48°F / 9°C 59% 29.98 in
(1015 mb)
NW 8.1 mph
(NW 13 kph)
- 10SM
07:53
Clear
55°F / 13°C 52°F / 11°C 88% 29.95 in
(1014 mb)
Calm - 10SM
07:04
Partly Cloudy
50°F / 10°C 50°F / 10°C 100% 29.95 in
(1014 mb)
Calm - 10SM
06:53
Mostly Cloudy
Fog And Mist
48°F / 9°C 48°F / 9°C 100% 29.95 in
(1014 mb)
Calm - 3SM
05:53
Obscured
Fog
48°F / 9°C 48°F / 9°C 100% 29.92 in
(1013 mb)
Calm - M1/4SM
04:53
Obscured
Fog
46°F / 8°C 46°F / 8°C 100% 29.92 in
(1013 mb)
Calm - 1/4SM
04:38
Obscured
Fog
46°F / 8°C 46°F / 8°C 100% 29.92 in
(1013 mb)
Calm - 1/4SM
04:31
Obscured
Fog
46°F / 8°C 46°F / 8°C 100% 29.92 in
(1013 mb)
Calm - 1/4SM
03:53
Obscured
Fog
48°F / 9°C 46°F / 8°C 94% 29.92 in
(1013 mb)
Calm - 1/4SM
03:28
Obscured
Fog
48°F / 9°C 48°F / 9°C 100% 29.89 in
(1012 mb)
Calm - 1/4SM
03:22
Partly Cloudy
Fog And Mist
48°F / 9°C 48°F / 9°C 100% 29.89 in
(1012 mb)
SSE 3.5 mph
(SSE 6 kph)
- 1 3/4SM
03:20
Partly Cloudy
Fog And Mist
48°F / 9°C 48°F / 9°C 100% 29.89 in
(1012 mb)
SSE 4.6 mph
(SSE 7 kph)
- 3SM
03:15
Partly Cloudy
Fog And Mist
48°F / 9°C 48°F / 9°C 100% 29.89 in
(1012 mb)
S 3.5 mph
(S 6 kph)
- 1 1/4SM
02:56
Obscured
Fog And Mist
48°F / 9°C 48°F / 9°C 100% 29.89 in
(1012 mb)
S 3.5 mph
(S 6 kph)
- 3/4SM
02:53
Partly Cloudy
Fog And Mist
48°F / 9°C 48°F / 9°C 100% 29.89 in
(1012 mb)
S 3.5 mph
(S 6 kph)
- 1 1/4SM
02:51
Partly Cloudy
Fog And Mist
48°F / 9°C 48°F / 9°C 100% 29.92 in
(1013 mb)
Calm - 1 1/2SM
02:22
Partly Cloudy
Fog And Mist
50°F / 10°C 48°F / 9°C 94% 29.92 in
(1013 mb)
Calm - 3SM
02:18
Obscured
Fog And Mist
48°F / 9°C 48°F / 9°C 100% 29.92 in
(1013 mb)
S 3.5 mph
(S 6 kph)
- 1SM
02:01
Obscured
Fog
48°F / 9°C 48°F / 9°C 100% 29.92 in
(1013 mb)
S 4.6 mph
(S 7 kph)
- 1/4SM
01:53
Obscured
Fog
48°F / 9°C 48°F / 9°C 100% 29.92 in
(1013 mb)
S 3.5 mph
(S 6 kph)
- 1/2SM
01:50
Obscured
Fog And Mist
48°F / 9°C 48°F / 9°C 100% 29.92 in
(1013 mb)
S 3.5 mph
(S 6 kph)
- 3/4SM
01:49
Obscured
Fog And Mist
48°F / 9°C 48°F / 9°C 100% 29.92 in
(1013 mb)
S 3.5 mph
(S 6 kph)
- 1SM
01:36
Partly Cloudy
Fog And Mist
50°F / 10°C 48°F / 9°C 94% 29.92 in
(1013 mb)
Calm - 2 1/2SM
01:33
Obscured
Fog And Mist
50°F / 10°C 48°F / 9°C 94% 29.92 in
(1013 mb)
Calm - 1SM
01:18
Obscured
Fog
50°F / 10°C 50°F / 10°C 100% 29.92 in
(1013 mb)
Calm - 1/4SM
01:10
Obscured
Fog
50°F / 10°C 50°F / 10°C 100% 29.92 in
(1013 mb)
S 3.5 mph
(S 6 kph)
- 1/2SM
00:53
Obscured
Fog
50°F / 10°C 50°F / 10°C 100% 29.92 in
(1013 mb)
Calm - 1/4SM
00:45
Obscured
Fog
52°F / 11°C 50°F / 10°C 94% 29.92 in
(1013 mb)
Calm - 1/4SM
00:33
Obscured
Fog And Mist
52°F / 11°C 52°F / 11°C 100% 29.92 in
(1013 mb)
S 3.5 mph
(S 6 kph)
- 3/4SM
00:22
Obscured
Fog And Mist
52°F / 11°C 52°F / 11°C 100% 29.92 in
(1013 mb)
S 3.5 mph
(S 6 kph)
- 1SM
00:00
Obscured
Fog
52°F / 11°C 52°F / 11°C 100% 29.92 in
(1013 mb)
S 4.6 mph
(S 7 kph)
- 1/4SM
Time Weather Temperature Dewpoint Humidity Pressure Winds Precip Visibility


Weather for websites

WeatherForYou.com, LLC is not responsible for any damages or problems caused by this service. Current weather conditions are obtained from the closest station including government and personal stations which may have varying degrees of accuracy. Weather forecasts are derived from the NOAA NDFD. Like all things, this site belongs to Jesus Christ... He just trusts me to maintain it. If you have any questions or comments email webmaster@weatherforyou.com

Copyright © 2014, WeatherForYou.com LLC. All rights reserved.